カタログに戻る

FENGYUN 1C DEB

運用中PO
NORAD 32234·DEBRIS·🇨🇳 China

打ち上げ May 10, 1999 から Taiyuan Satellite Launch Center

Loading…

次のパス (今後24時間)

TLE

最新Source: Space-Track

元期: Sep 14, 2026, 00:18 UTC

1 32234U 99025CWG 26257.01297628  .00000971  00000-0  69770-3 0  9995
2 32234  98.5147  90.9361 0133430 292.4108  66.2966 13.94986378970467

AllMySatでFENGYUN 1C DEBをリアルタイム追跡

Download on the App Store